TimeEDT,TemperatureF,Dew PointF,Humidity,Sea Level PressureIn,VisibilityMPH,Wind Direction,Wind SpeedMPH,Gust SpeedMPH,PrecipitationIn,Events,Conditions,WindDirDegrees,DateUTC
12:14 AM,69.8,68.0,94,30.04,4.0,NE,8.1,-,0.05,Rain,Heavy Rain,50,2013-07-13 04:14:00
12:54 AM,70.0,68.0,93,30.06,7.0,East,8.1,-,0.11,Rain,Light Rain,80,2013-07-13 04:54:00
1:54 AM,70.0,68.0,93,30.06,6.0,ENE,6.9,-,0.01,Rain,Light Rain,60,2013-07-13 05:54:00
2:54 AM,70.0,68.0,93,30.06,10.0,ENE,9.2,-,0.00,Rain,Light Rain,70,2013-07-13 06:54:00
3:05 AM,69.8,68.0,94,30.05,10.0,ENE,5.8,18.4,0.00,,Overcast,70,2013-07-13 07:05:00
3:54 AM,70.0,68.0,93,30.07,5.0,East,5.8,-,0.01,Rain,Light Rain,80,2013-07-13 07:54:00
4:54 AM,71.1,69.1,93,30.09,10.0,East,8.1,-,0.02,,Overcast,90,2013-07-13 08:54:00
5:06 AM,71.6,69.8,94,30.08,10.0,East,5.8,-,0.00,Rain,Light Rain,90,2013-07-13 09:06:00
5:54 AM,71.1,69.1,93,30.10,10.0,ESE,8.1,-,0.00,,Overcast,110,2013-07-13 09:54:00
6:02 AM,71.6,69.8,94,-9999,2.0,ESE,6.9,-,0.00,Rain,Light Rain,110,2013-07-13 10:02:00
6:30 AM,71.6,69.8,94,-9999,2.0,SE,4.6,-,0.01,Rain,Light Rain,130,2013-07-13 10:30:00
6:47 AM,71.6,69.8,94,-9999,2.0,ESE,6.9,-,0.01,,Overcast,120,2013-07-13 10:47:00
6:54 AM,72.0,69.1,91,-9999,2.0,SE,6.9,-,0.01,,Overcast,140,2013-07-13 10:54:00
6:58 AM,71.6,69.8,94,-9999,3.0,ESE,4.6,-,N/A,,Overcast,120,2013-07-13 10:58:00
7:05 AM,71.6,69.8,94,-9999,3.0,SE,6.9,-,N/A,,Overcast,130,2013-07-13 11:05:00
7:54 AM,73.0,70.0,90,-9999,3.0,ESE,6.9,-,N/A,,Overcast,120,2013-07-13 11:54:00
8:54 AM,73.9,70.0,87,30.17,10.0,ESE,5.8,-,N/A,,Mostly Cloudy,120,2013-07-13 12:54:00
9:54 AM,75.9,70.0,82,30.19,10.0,ESE,8.1,-,N/A,,Mostly Cloudy,120,2013-07-13 13:54:00
10:52 AM,75.2,69.8,83,30.19,10.0,SE,10.4,-,N/A,,Overcast,130,2013-07-13 14:52:00
10:54 AM,75.9,70.0,82,30.20,10.0,SE,10.4,-,N/A,,Overcast,130,2013-07-13 14:54:00
11:01 AM,77.0,69.8,78,30.19,10.0,ESE,9.2,-,N/A,,Overcast,120,2013-07-13 15:01:00
11:42 AM,78.8,69.8,74,30.20,10.0,Variable,5.8,-,N/A,,Overcast,0,2013-07-13 15:42:00
11:54 AM,78.1,71.1,79,30.21,10.0,SE,9.2,-,N/A,,Overcast,130,2013-07-13 15:54:00
12:14 PM,80.6,69.8,70,30.20,10.0,South,6.9,-,N/A,,Overcast,170,2013-07-13 16:14:00
12:54 PM,79.0,70.0,74,30.22,10.0,SE,5.8,-,N/A,,Overcast,140,2013-07-13 16:54:00
1:54 PM,82.0,71.1,69,30.21,10.0,Calm,Calm,-,N/A,,Overcast,0,2013-07-13 17:54:00
2:54 PM,84.0,71.1,65,30.21,10.0,South,4.6,-,N/A,,Mostly Cloudy,180,2013-07-13 18:54:00
3:54 PM,82.9,72.0,69,30.21,10.0,SE,5.8,-,N/A,,Overcast,140,2013-07-13 19:54:00
4:54 PM,84.9,71.1,63,30.22,10.0,West,4.6,-,N/A,,Overcast,280,2013-07-13 20:54:00
5:54 PM,84.0,70.0,63,30.21,10.0,Calm,Calm,-,N/A,,Scattered Clouds,0,2013-07-13 21:54:00
6:54 PM,82.9,71.1,67,30.23,10.0,WSW,4.6,-,N/A,,Partly Cloudy,250,2013-07-13 22:54:00
7:54 PM,82.0,71.1,69,30.25,10.0,North,3.5,-,N/A,,Clear,350,2013-07-13 23:54:00
8:54 PM,79.0,72.0,79,30.25,10.0,Calm,Calm,-,N/A,,Clear,0,2013-07-14 00:54:00
9:54 PM,77.0,72.0,84,30.27,10.0,Calm,Calm,-,N/A,,Clear,0,2013-07-14 01:54:00
10:54 PM,77.0,73.0,88,30.29,10.0,SSE,4.6,-,N/A,,Clear,160,2013-07-14 02:54:00
11:54 PM,77.0,73.0,88,30.30,10.0,Calm,Calm,-,N/A,,Overcast,0,2013-07-14 03:54:00